Regional Weather Roundup
Issued by NWS

Home | Current Version | Previous Version | Text Only | Print | Product List | Glossary Off
Versions: 1 2 3 4 5 6 7 8 9 10 11 12 13 14 15 16 17 18 19 20 21 22 23 24 25 26 27 28 29 30 31 32 33 34 35 36 37 38 39 40 41 42 43 44 45 46 47 48 49 50

093
ASUS43 KDTX 250810
RWRMI
MICHIGAN HOURLY REGIONAL WEATHER ROUNDUP
NATIONAL WEATHER SERVICE DETROIT/PONTIAC MI
400 AM EDT THU AUG 25 2016

NOTE: "FAIR" INDICATES FEW OR NO CLOUDS BELOW 12,000 FEET WITH NO
SIGNIFICANT WEATHER AND/OR OBSTRUCTION TO VISIBILITY.

MIZ047>049-052>055-059>063-066>070-074>076-081>083-250900-
SOUTHEAST LOWER MICHIGAN

CITY           SKY/WX    TMP DP  RH WIND       PRES   REMARKS
ADRIAN         PTCLDY    70  70 100 W7        30.01R
ALMA           PTCLDY    72  72 100 SW6       29.96R FOG
ANN ARBOR      CLOUDY    72  72 100 SW9       29.97R FOG
BAD AXE        CLOUDY    70  70  99 SW5       29.94R FOG
CARO           CLOUDY    71  71  99 SW5       29.94R FOG
DETROIT CITY   CLOUDY    74  74 100 W7        29.96R
DETROIT        CLOUDY    73  73 100 SW9       29.97R FOG
FLINT          MOCLDY    74  70  87 SW6       29.96R
GROSSE ILE     CLOUDY    72  70  94 CALM      29.96R
HILLSDALE      PTCLDY    71  69  93 W5        30.01R
HOWELL         CLOUDY    72  72  99 W6        29.98R FOG

CITY           SKY/WX    TMP DP  RH WIND       PRES   REMARKS
JACKSON        CLOUDY    72  72 100 SW8       29.99R
LAMBERTVILLE   CLEAR     73  71  92 SW6       30.00R
LANSING        MOCLDY    73  70  90 SW8       29.97R
LAPEER         CLOUDY    72  71  96 W5        29.96R
MASON          CLOUDY    72  71  96 SW3       29.98S FOG
MONROE         PTCLDY    70  70  99 SW5       29.98R
MT. CLEMENS    CLEAR     72  72 100 SW6       29.94R
PONTIAC        MOCLDY    73  71  93 W7        29.96R
PORT HURON     FOG       70  70 100 CALM      29.94R VSB 3/4
TRI CITIES     CLOUDY    73  72  96 W6        29.95R
MIDLAND        CLOUDY    73  71  96 W5        29.94R
TROY           MOCLDY    74  71  92 SW3       29.98R
SAGINAW HB     CLOUDY    72  70  94 SW5       29.94R
$$
MIZ043>046-050>051-056>058-064>065-071>073-077>080-250900-
SOUTHWEST LOWER MICHIGAN

CITY           SKY/WX    TMP DP  RH WIND       PRES   REMARKS
BATTLE CREEK   MOCLDY    70  70 100 SW8       29.99S
BENTON HARBOR  LGT RAIN  77  70  79 SW12      29.97S
BIG RAPIDS     PTCLDY    72  70  94 W3        29.95R
COLDWATER      CLOUDY    70  70  99 SW3       30.01R
FREMONT        MOCLDY    69  69  98 N3        29.95S FOG
HOLLAND        CLOUDY    76  73  91 W3        29.96S
GRAND RAPIDS   HVY RAIN  74  70  87 W6        29.97R FOG
IONIA          MOCLDY    72  69  92 W6        29.96R
KALAMAZOO      PTCLDY    73  69  87 SW6       29.99R
LUDINGTON      FOG       67  67 100 CALM      29.92F VSB 1/2
MARSHALL       MOCLDY    72  72 100 SW5       29.99R
MOUNT PLEASANT CLEAR     71  70  96 SW3       29.94S FOG
MUSKEGON       CLOUDY    74  72  93 CALM      29.95S
SOUTH HAVEN    CLOUDY    78  73  87 SW8       29.97S
$$
MIZ016>042-250900-
NORTHERN LOWER MICHIGAN

CITY           SKY/WX    TMP DP  RH WIND       PRES   REMARKS
ALPENA         CLEAR     69  66  90 SW3       29.89R
BEAVER ISLAND  CLEAR     67  67  99 CALM      29.88R
BELLAIRE       MOCLDY    71  69  92 SW3       29.90S
CADILLAC       CLOUDY    68  66  94 W3        29.95S
CHARLEVOIX     MOCLDY    71  69  96 SW7       29.92R
FRANKFORT      CLEAR     66  64  93 CALM      29.91S FOG
GAYLORD        CLOUDY    70  66  87 W7        29.93R
GRAYLING       CLOUDY    69  68  98 SW5       29.94S FOG
HARBOR SPRINGS CLOUDY    71  69  92 SW6       29.89R
HOUGHTON LAKE  MOCLDY    69  68  96 W3        29.95R
MANISTEE       FOG       64  63  96 CALM      29.92S VSB 1/4
OSCODA         CLEAR     67  67  99 SW8       29.90R
PELLSTON       CLEAR     70  67  90 SW6       29.88R
ROGERS CITY    CLEAR     70  67  91 W5        29.88S
TRAVERSE CITY  PTCLDY    71  68  90 CALM      29.89S
$$
MIZ007>008-015-250900-
EASTERN UPPER MICHIGAN

CITY           SKY/WX    TMP DP  RH WIND       PRES   REMARKS
KINROSS        FOG       66  65  96 CALM      29.86S VSB 1/4
MACKINAC ISLAN CLOUDY    69  69 100 SW5       29.86R FOG
NEWBERRY       PTCLDY    64  63  97 SW7       29.86R
S. S. MARIE    CLOUDY    67  66  97 CALM      29.84S
$$
MIZ004>006-011>014-085-250900-
CENTRAL UPPER MICHIGAN

CITY           SKY/WX    TMP DP  RH WIND       PRES   REMARKS
MANISTIQUE     CLEAR     66  64  92 W5        29.85F
ESCANABA       PTCLDY    66  64  93 W8        29.88R
MENOMINEE      MOCLDY   N/A N/A N/A W5        29.92R
SAWYER-GWINN   PTCLDY    62  59  91 W6        29.89S
$$
MIZ001>003-009>011-084-250900-
WESTERN UPPER MICHIGAN

CITY           SKY/WX    TMP DP  RH WIND       PRES   REMARKS
IRON MOUNTAIN  MOCLDY    65  58  78 W7        29.90S
HOUGHTON       MOCLDY    67  58  72 W12       29.86S
COPPER HARBOR    N/A     71  58  63 N13G20    29.82S
IRONWOOD       PTCLDY    60  56  86 W7        29.95R
$$

ABBREVIATIONS USED IN REMARKS
   TC - TEMPERATURE IN CELSIUS
  WCI - WIND CHILL INDEX
   HX - HEAT INDEX
  VSB - VISIBILITY





USA.gov is the U.S. government's official web portal to all federal, state and local government web resources and services.